Terminal Aerodrome Forecast
Issued by NWS

Home | Current Version | Previous Version | Graphics & Text | Print | Product List | Glossary On
Versions: 1 2 3 4 5 6 7 8 9 10 11 12 13 14 15
000
FTUS43 KABR 101900 AAA
TAFPIR
TAF AMD
KPIR 101901Z 1019/1118 17010KT P6SM FEW035 SCT150
     FM110300 14008KT P6SM FEW100 BKN250
     FM110800 VRB06KT P6SM FEW250
     FM111400 03006KT P6SM SKC=

USA.gov is the U.S. government's official web portal to all federal, state and local government web resources and services.